Location: Audinghen
(50.8518°N, 1.6129°E)
Time: 05:39:44
(UTC+00:00)

Cosmos 2322 Rocket - Pass Details

Date: 07 August 2020
Orbit: 831 x 852 km, 71.0° (Epoch: 19 September)

Event Time Altitude Azimuth Distance (km) Brightness Sun altitude
Rises 00:09:24 0° 321° (NW) 3,419 6.1 -22.8°
Reaches altitude 10° 00:12:26 10° 305° (NW) 2,482 5.0 -22.7°
Maximum altitude 00:16:29 20° 260° (W) 1,853 3.8 -22.7°
Enters shadow 00:17:08 20° 250° (WSW) 1,872 3.8 -22.7°
